Weather History for Jordan, MT

Change the Weather History Date:

Sunday, June 30, 2013

  Actual Average Record
Temperature  
Mean Temperature 72 °F 67 °F  
Max Temperature 85 °F 82 °F 104 °F (1984)
Min Temperature 59 °F 51 °F 36 °F (1951)
Degree Days  
Heating Degree Days 0 2  
Month to date heating degree days 95 125  
Since 1 June heating degree days 95 125  
Since 1 July heating degree days 7701 8246  
Cooling Degree Days 7 3  
Month to date cooling degree days 48 48  
Year to date cooling degree days 60 54  
Since 1 June cooling degree days 48 48  
Growing Degree Days 22 (Base 50)    
Moisture  
Dew Point 55 °F    
Average Humidity 56    
Maximum Humidity 78    
Minimum Humidity 34    
Precipitation  
Precipitation 0.00 in 0.06 in 2.04 in (1992)
Month to date precipitation 4.06 2.49  
Year to date precipitation 11.02 6.86  
Snow  
Snow 0.00 in - - ()
Month to date snowfall 0.0  
Since 1 June snowfall 0.0  
Since 1 July snowfall 0.0  
Snow Depth 0.00 in    
Sea Level Pressure  
Sea Level Pressure 30.10 in    
Wind  
Wind Speed 9 mph (ESE)    
Max Wind Speed 16 mph    
Max Gust Speed 21 mph    
T = Trace of Precipitation, MM = Missing Value Source: NWS Daily Summary

Daily Weather History Graph

Daily Weather History Graph

Search for Another Location

Airport:

Trip Planner

Search our weather history database for the weather conditions in past years. The results will help you decide how hot, cold, wet, or windy it might be!

Date:

Astronomy

Jun. 30, 2013 Rise Set
Actual Time 5:14 AM MDT 9:07 PM MDT
Civil Twilight 4:34 AM MDT 9:47 PM MDT
Nautical Twilight 3:40 AM MDT 10:42 PM MDT
Astronomical Twilight 2:16 AM MDT 12:04 AM MDT
Moon 12:35 AM MDT (6/30) 2:07 PM MDT (6/30)
Length of Visible Light 17h 13m
Length of Day
15h 52m
Last Quarter, 45% of the Moon is Illuminated
Jun 30
Last Quarter
Jul 8
New
Jul 15
First Quarter
Jul 22
Full
Jul 29
Last Quarter

Hourly Weather History & Observations

Time (MDT) Temp. Heat Index Dew Point Humidity Pressure Visibility Wind Dir Wind Speed Gust Speed Precip Events Conditions
12:48 AM 64.9 °F - 55.9 °F 73% 30.09 in - East 5.8 mph - N/A   Unknown
1:48 AM 64.0 °F - 55.9 °F 75% 30.11 in - East 5.8 mph - N/A   Unknown
2:48 AM 62.1 °F - 55.0 °F 78% 30.11 in - East 5.8 mph - N/A   Unknown
3:48 AM 62.1 °F - 55.0 °F 78% 30.11 in - ENE 6.9 mph - N/A   Unknown
4:48 AM 61.0 °F - 54.0 °F 78% 30.10 in - East 5.8 mph - N/A   Unknown
5:48 AM 60.1 °F - 54.0 °F 80% 30.10 in - East 5.8 mph - N/A   Unknown
6:48 AM 62.1 °F - 54.0 °F 75% 30.11 in - East 6.9 mph - N/A   Unknown
7:48 AM 66.9 °F - 55.9 °F 68% 30.11 in - ESE 8.1 mph - N/A   Unknown
8:48 AM 72.0 °F - 55.9 °F 57% 30.10 in - SE 11.5 mph - N/A   Unknown
9:48 AM 73.9 °F - 55.9 °F 53% 30.12 in - SSE 11.5 mph - N/A   Unknown
10:48 AM 78.1 °F - 55.9 °F 46% 30.10 in - ESE 11.5 mph 18.4 mph N/A   Unknown
11:48 AM 80.1 °F 80.1 °F 55.0 °F 42% 30.11 in - ESE 12.7 mph - N/A   Unknown
12:48 PM 82.0 °F 81.3 °F 54.0 °F 38% 30.11 in - SSE 11.5 mph - N/A   Unknown
1:48 PM 82.9 °F 81.9 °F 54.0 °F 37% 30.10 in - ESE 10.4 mph - N/A   Unknown
2:48 PM 84.0 °F 82.9 °F 55.0 °F 37% 30.09 in - ESE 12.7 mph 18.4 mph N/A   Unknown
3:48 PM 84.9 °F 83.3 °F 54.0 °F 34% 30.08 in - East 10.4 mph 17.3 mph N/A   Unknown
4:48 PM 84.0 °F 82.9 °F 55.0 °F 37% 30.08 in - East 11.5 mph - N/A   Unknown
5:48 PM 84.0 °F 82.9 °F 55.0 °F 37% 30.08 in - ESE 10.4 mph - N/A   Unknown
6:48 PM 82.9 °F 82.1 °F 55.9 °F 39% 30.09 in - East 11.5 mph - N/A   Unknown
7:48 PM 81.0 °F 81.0 °F 57.0 °F 44% 30.09 in - East 10.4 mph - N/A   Unknown
8:48 PM 75.9 °F - 57.0 °F 52% 30.09 in - East 10.4 mph - N/A   Unknown
9:48 PM 72.0 °F - 57.0 °F 59% 30.12 in - East 6.9 mph - N/A   Unknown
10:48 PM 68.0 °F - 55.9 °F 65% 30.12 in - Calm Calm - N/A   Unknown
11:48 PM 64.9 °F - 55.0 °F 70% 30.13 in - ENE 5.8 mph - N/A   Unknown